Starlink 6137

operational
NORAD ID: 57156 Int'l Des: 2023-090 Owner: SPXS Country: US Constellation: starlink
LEOCIRCULAR

Über Starlink 6137

Beschreibung wird geladen...

Live-Position

3D-Globus wird geladen...

Nächste Überflüge

Höhenverlauf

Altitude vs Time

uPlot chart will show altitude changes over time

Zweizeiliger Elementsatz

1 57156U 23090BH 25354.03079353 -.00000363 00000-0 -11829-4 0 9996
2 57156 43.0063 334.2115 0001183 273.3885 86.6822 15.02532680138589
Epoch: 20. Dez. 2025 • Age: 14 hours

Aktueller Status

Höhe 559.4 km
Geschwindigkeit 7.58 km/s
Subsatellitenpunkt -4.55°S, 10.61°E
Startdatum 23. Juni 2023
Alter 2.4 years
Typ internet

Technische Details

Klassifizierung Payload
Masse 305.00 kg
Trockenmasse 290.00 kg
Gesamtmasse 305.00 kg
Länge 0.20 m
Durchmesser 2.80 m
Spannweite 9.00 m
Form Box + pan
Hersteller SPXS
Bus-Typ Starlink
Phasenstatus In Orbit
Besitzer/Staat SPXS/US

Große Konstellationen

Loading constellations...